DateTimeUTC,F1_A11,F1_S11,BsB_S11,BsG_S11,BsR_S11,BbsB_S11,BbsG_S11,BbsR_S11,BaB_A11,BaG_A11,BaR_A11,Tu_S11,T_S11,Uu_S11,U_S11,P_S11,T1_A11
2021-10-05T01:00:00Z,00000200,21000000,,,,,,,0001.68,0001.72,0001.76,16.2,23.3,,00.0,0668.2,30.6
2021-10-05T01:01:00Z,00000200,21000000,,,,,,,0001.32,0001.59,0000.91,16.1,23.3,,00.0,0668.2,30.6
2021-10-05T01:02:00Z,00000200,21000000,,,,,,,0001.77,0000.86,0000.76,16.1,23.3,,00.0,0668.2,30.6
2021-10-05T01:03:00Z,00000200,61000000,,,,,,,0009.75,0009.51,0007.58,16.1,23.3,,00.0,0668.2,30.6
2021-10-05T01:04:00Z,00000200,41000000,0001.34,0000.67,0000.47,0000.67,0000.14,-000.03,0016.44,0014.96,0011.96,16.4,23.1,,00.0,0669.1,30.6
2021-10-05T01:05:00Z,00000200,01000000,0004.26,0002.64,0002.41,0001.15,0000.54,0000.85,0050.41,0046.58,0036.64,16.5,23.1,,00.0,0669.1,30.6
2021-10-05T01:06:00Z,00000200,01000000,0005.58,0003.78,0002.45,0001.44,0000.48,0000.73,0065.87,0060.41,0048.30,16.6,23.1,,00.0,0669.1,30.6
2021-10-05T01:07:00Z,00000200,01000000,0007.01,0005.28,0003.44,0000.69,0001.21,0001.16,0096.26,0089.43,0071.08,16.6,23.1,,00.0,0669.1,30.6
2021-10-05T01:08:00Z,00000200,01000000,0010.50,0007.93,0004.85,0001.92,0001.84,0001.38,0141.55,0130.17,0104.13,16.7,23.1,,00.0,0669.1,30.6
2021-10-05T01:09:00Z,00000200,01000000,0016.23,0010.84,0006.50,0003.02,0002.84,0001.78,0195.61,0181.44,0143.80,16.7,23.1,,00.0,0669.1,30.6
2021-10-05T01:10:00Z,00000200,01000000,0017.14,0013.07,0008.01,0003.80,0003.01,0002.51,0233.90,0215.71,0172.52,16.7,23.2,,00.0,0669.1,30.6
2021-10-05T01:11:00Z,00000200,01000000,0017.06,0012.23,0007.47,0003.46,0003.13,0002.19,0233.16,0215.48,0171.79,16.6,23.1,,00.0,0669.1,30.6
2021-10-05T01:12:00Z,00000200,01000000,0015.69,0011.67,0007.19,0004.02,0003.11,0002.02,0225.60,0208.73,0166.10,16.5,23.1,,00.0,0669.1,30.6
2021-10-05T01:13:00Z,00000200,01000000,0014.34,0010.92,0006.68,0002.64,0002.37,0001.98,0203.91,0188.09,0150.37,16.4,23.1,,00.0,0669.0,30.6
2021-10-05T01:14:00Z,00000200,01000000,0013.24,0009.69,0006.12,0002.89,0002.20,0001.66,0180.93,0167.73,0133.84,16.4,23.0,,00.0,0669.0,30.6
2021-10-05T01:15:00Z,00000200,01000000,0014.97,0010.07,0006.34,0003.16,0002.77,0001.74,0195.48,0180.62,0144.18,16.3,23.0,,00.0,0669.0,30.5
2021-10-05T01:16:00Z,00000200,01000000,0014.85,0010.39,0006.69,0003.18,0002.42,0001.96,0191.58,0177.44,0142.17,16.3,23.0,,00.0,0669.0,30.5
2021-10-05T01:17:00Z,00000200,01000000,0014.88,0011.58,0007.20,0002.78,0002.96,0001.64,0203.59,0188.68,0151.07,16.4,23.0,,00.0,0669.0,30.5
2021-10-05T01:18:00Z,00000200,01000000,0015.01,0010.99,0006.25,0003.97,0002.54,0001.94,0201.03,0186.68,0150.08,16.4,23.0,,00.0,0669.0,30.6
2021-10-05T01:19:00Z,00000200,01000000,0010.93,0007.70,0005.42,0002.53,0002.15,0001.50,0146.33,0135.75,0109.10,16.4,23.0,,00.0,0669.0,30.6
2021-10-05T01:20:00Z,00000200,01000000,0008.97,0006.23,0003.68,0001.38,0001.66,0000.98,0113.20,0105.24,0084.72,16.5,23.0,,00.0,0668.9,30.6
2021-10-05T01:21:00Z,00000200,01000000,0004.07,0002.57,0001.69,0001.42,0000.56,0000.53,0053.39,0049.55,0039.88,16.5,23.0,,00.0,0668.9,30.6
2021-10-05T01:22:00Z,00000200,01000000,0008.16,0005.91,0003.78,0002.07,0001.54,0000.99,0096.30,0089.03,0071.53,16.6,23.1,,00.0,0668.9,30.6
2021-10-05T01:23:00Z,00000200,01000000,0013.32,0010.55,0006.26,0002.88,0002.50,0001.67,0168.57,0156.45,0126.30,16.7,23.1,,00.0,0669.0,30.6
2021-10-05T01:24:00Z,00000200,01000000,0012.38,0008.44,0005.46,0002.09,0002.21,0001.51,0154.55,0144.03,0116.01,16.7,23.1,,00.0,0669.0,30.6
2021-10-05T01:25:00Z,00000200,01000000,0008.32,0006.47,0004.25,0001.77,0001.67,0001.45,0117.44,0108.79,0087.36,16.8,23.1,,00.0,0669.0,30.6
2021-10-05T01:26:00Z,00000200,01000000,0007.65,0005.45,0002.87,0001.53,0001.24,0000.91,0097.22,0090.20,0072.95,16.7,23.1,,00.0,0669.0,30.7
2021-10-05T01:27:00Z,00000200,01000000,0004.76,0004.01,0002.41,0001.36,0000.73,0000.79,0072.83,0067.31,0054.25,16.7,23.1,,00.0,0668.9,30.6
2021-10-05T01:28:00Z,00000200,01000000,0008.46,0005.94,0003.75,0001.60,0001.59,0001.14,0101.02,0093.87,0074.59,16.6,23.1,,00.0,0668.9,30.6
2021-10-05T01:29:00Z,00000200,01000000,0012.40,0008.92,0005.99,0002.74,0002.10,0001.95,0153.20,0142.01,0114.71,16.5,23.0,,00.0,0668.9,30.6
2021-10-05T01:30:00Z,00000200,01000000,0015.96,0011.32,0007.23,0003.31,0002.87,0001.92,0192.28,0178.53,0144.00,16.5,23.0,,00.0,0668.9,30.6
2021-10-05T01:31:00Z,00000200,01000000,0016.10,0011.44,0007.41,0003.54,0002.55,0002.06,0194.38,0180.85,0146.14,16.5,23.0,,00.0,0668.9,30.6
2021-10-05T01:32:00Z,00000200,01000000,0017.48,0012.86,0008.11,0003.71,0003.10,0002.68,0209.26,0194.51,0158.06,16.5,23.0,,00.0,0668.9,30.6
2021-10-05T01:33:00Z,00000200,01000000,0017.79,0012.83,0008.82,0003.69,0003.43,0002.48,0216.62,0201.83,0163.54,16.5,23.0,,00.0,0668.9,30.6
2021-10-05T01:34:00Z,00000200,01000000,0016.95,0011.95,0007.73,0003.18,0003.06,0002.35,0195.09,0181.61,0147.39,16.6,23.0,,00.0,0668.9,30.6
2021-10-05T01:35:00Z,00000200,01000000,0018.10,0013.63,0007.96,0003.99,0003.23,0002.28,0218.56,0203.61,0165.53,16.6,23.0,,00.0,0668.9,30.6
2021-10-05T01:36:00Z,00000200,01000000,0014.93,0011.17,0006.82,0003.45,0002.74,0001.95,0183.66,0171.49,0139.26,16.7,23.1,,00.0,0668.9,30.6
2021-10-05T01:37:00Z,00000200,01000000,0007.66,0005.42,0003.15,0000.92,0001.29,0001.20,0093.53,0087.31,0070.74,16.7,23.1,,00.0,0668.9,30.6
2021-10-05T01:38:00Z,00000200,01000000,0002.41,0001.63,0001.03,0000.28,0000.18,0000.46,0032.68,0030.52,0024.84,16.8,23.1,,00.0,0668.9,30.6
2021-10-05T01:39:00Z,00000200,01000000,0000.86,0000.39,-000.06,-000.41,0000.04,0000.00,0006.88,0006.31,0004.93,16.8,23.1,,00.0,0668.9,30.6
2021-10-05T01:40:00Z,00000200,01000000,0000.40,0000.14,0000.02,0000.10,0000.19,0000.09,0002.10,0001.81,0001.62,16.8,23.2,,00.0,0668.9,30.6
2021-10-05T01:41:00Z,00000200,01000000,-000.04,0000.62,0000.08,-000.27,0000.11,0000.38,0001.71,0001.71,0001.42,16.8,23.2,,00.0,0668.9,30.6
2021-10-05T01:42:00Z,00000200,01000000,-000.15,-000.15,-000.12,-000.37,0000.30,-000.27,0001.59,0001.22,0000.56,16.7,23.1,,00.0,0668.9,30.6
2021-10-05T01:43:00Z,00000200,01000000,0000.33,-000.07,0000.03,0000.00,-000.31,-000.13,0001.24,0001.48,0001.14,16.6,23.1,,00.0,0668.9,30.6
2021-10-05T01:44:00Z,00000200,01000000,0000.01,0000.13,-000.05,-000.08,0000.30,0000.06,0001.45,0001.20,0001.26,16.5,23.0,,00.0,0668.9,30.6
2021-10-05T01:45:00Z,00000200,01000000,0001.05,0000.28,-000.02,0000.10,0000.12,0000.09,0005.38,0005.24,0004.01,16.5,23.0,,00.0,0668.9,30.6
2021-10-05T01:46:00Z,00000200,01000000,0006.33,0004.71,0002.75,0001.46,0001.15,0001.15,0067.22,0062.39,0050.26,16.5,23.0,,00.0,0668.9,30.6
2021-10-05T01:47:00Z,00000200,01000000,0014.00,0010.44,0006.27,0003.03,0002.29,0001.71,0155.73,0144.81,0117.57,16.5,23.0,,00.0,0668.9,30.6
2021-10-05T01:48:00Z,00000200,01000000,0015.99,0011.94,0007.25,0003.42,0002.51,0002.21,0189.54,0176.43,0143.84,16.6,23.0,,00.0,0668.9,30.6
2021-10-05T01:49:00Z,00000200,01000000,0011.54,0008.60,0005.27,0002.05,0002.01,0001.58,0141.72,0132.35,0107.87,16.6,23.1,,00.0,0668.9,30.6
2021-10-05T01:50:00Z,00000200,01000000,0010.51,0006.63,0004.36,0001.99,0001.25,0001.28,0112.59,0105.09,0085.40,16.7,23.1,,00.0,0668.9,30.6
2021-10-05T01:51:00Z,00000200,01000000,0007.21,0005.53,0002.99,0001.83,0001.44,0001.11,0086.87,0080.60,0065.31,16.7,23.1,,00.0,0668.9,30.6
2021-10-05T01:52:00Z,00000200,01000000,0008.24,0005.95,0003.26,0002.09,0001.30,0001.08,0087.99,0082.17,0067.19,16.7,23.1,,00.0,0668.9,30.6
2021-10-05T01:53:00Z,00000200,01000000,0007.82,0006.19,0003.41,0002.14,0001.52,0001.14,0091.00,0084.35,0068.30,16.8,23.1,,00.0,0668.9,30.6
2021-10-05T01:54:00Z,00000200,01000000,0008.78,0007.19,0004.45,0002.18,0001.49,0001.52,0111.80,0104.08,0084.71,16.7,23.1,,00.0,0668.9,30.6
2021-10-05T01:55:00Z,00000200,01000000,0011.67,0007.92,0004.72,0002.27,0001.89,0001.51,0128.79,0119.78,0097.08,16.7,23.1,,00.0,0668.9,30.6
2021-10-05T01:56:00Z,00000200,01000000,0010.61,0007.54,0004.72,0002.06,0001.79,0001.31,0128.07,0119.59,0097.30,16.6,23.1,,00.0,0668.9,30.6
2021-10-05T01:57:00Z,00000200,41000000,,,,,,,0042.96,0040.31,0033.16,16.6,23.1,,00.0,0668.9,30.6
2021-10-05T01:58:00Z,00000200,61000000,,,,,,,0002.63,0003.05,0001.75,16.1,23.2,,00.0,0667.9,30.5
2021-10-05T01:59:00Z,00000200,21000000,,,,,,,0002.15,0001.86,0001.62,16.0,23.3,,00.0,0667.9,30.5
